GW7039 Weather Reports


time (UTC)temp
C
wind
direction
speed
KPH
gust
KPH
rain 1hr
cm
rain 24hr
cm
rain mn
cm
humidity
%
barometer
mb
20260509224258 21 327 12.9 20.9 0.00 0.00 0.00 35 1006.3
20260509223755 22 328 8.0 20.9 0.00 0.00 0.00 34 1006.1
20260509223252 21 309 11.3 14.5 0.00 0.00 0.00 34 1006.2
20260509222749 21 321 14.5 37.0 0.00 0.00 0.00 34 1006.1
20260509222244 22 248 14.5 24.1 0.00 0.00 0.00 33 1006.0
20260509221740 22 272 8.0 22.5 0.00 0.00 0.00 33 1006.1
20260509221237 22 270 8.0 20.9 0.00 0.00 0.00 34 1005.9
20260509220732 22 307 6.4 12.9 0.00 0.00 0.00 34 1005.9
20260509220229 22 267 14.5 20.9 0.00 0.00 0.00 32 1005.7
20260509215725 22 298 9.7 29.0 0.00 0.00 0.00 31 1005.7
20260509215221 23 286 12.9 22.5 0.00 0.00 0.00 31 1005.6
20260509214719 22 304 9.7 24.1 0.00 0.00 0.00 30 1005.5
20260509214215 22 254 17.7 33.8 0.00 0.00 0.00 29 1005.7
20260509213712 22 196 12.9 27.4 0.00 0.00 0.00 30 1005.5
20260509213208 23 333 16.1 20.9 0.00 0.00 0.00 30 1005.5
20260509212706 23 317 8.0 27.4 0.00 0.00 0.00 31 1005.4
20260509212202 23 302 12.9 20.9 0.00 0.00 0.00 32 1005.0
20260509211659 23 241 11.3 27.4 0.00 0.00 0.00 32 1005.1
20260509211155 22 208 19.3 43.5 0.00 0.00 0.00 32 1005.2
20260509210652 23 278 12.9 27.4 0.00 0.00 0.00 31 1005.1
20260509210149 23 231 14.5 25.7 0.00 0.00 0.00 31 1005.0
20260509205644 23 192 14.5 25.7 0.00 0.00 0.00 30 1005.1
20260509205144 23 261 24.1 35.4 0.00 0.00 0.00 30 1005.0
20260509204640 23 307 16.1 35.4 0.00 0.00 0.00 31 1004.9
20260509204136 23 232 17.7 27.4 0.00 0.00 0.00 32 1004.9
20260509203633 23 252 12.9 27.4 0.00 0.00 0.00 32 1004.9
20260509203131 23 257 20.9 29.0 0.00 0.00 0.00 32 1005.1
20260509202631 23 264 9.7 17.7 0.00 0.00 0.00 32 1005.1
20260509202126 23 227 9.7 20.9 0.00 0.00 0.00 32 1004.9
20260509201621 22 309 11.3 25.7 0.00 0.00 0.00 32 1004.9
20260509201119 22 258 12.9 17.7 0.00 0.00 0.00 32 1004.9
20260509200615 23 263 12.9 25.7 0.00 0.00 0.00 32 1005.1
20260509200110 23 215 6.4 14.5 0.00 0.00 0.00 33 1004.9
20260509195607 23 261 16.1 24.1 0.00 0.00 0.00 31 1005.0
20260509195101 22 223 20.9 30.6 0.00 0.00 0.00 32 1005.2
20260509194601 22 281 16.1 37.0 0.00 0.00 0.00 32 1005.1
20260509194059 22 220 14.5 27.4 0.00 0.00 0.00 32 1005.3
20260509193554 22 258 4.8 27.4 0.00 0.00 0.00 33 1005.3
20260509193050 22 217 19.3 35.4 0.00 0.00 0.00 32 1005.1
20260509192547 22 219 14.5 22.5 0.00 0.00 0.00 32 1005.2
20260509192043 22 235 14.5 22.5 0.00 0.00 0.00 33 1005.3
20260509191542 22 249 16.1 35.4 0.00 0.00 0.00 32 1005.2
20260509191039 22 237 11.3 27.4 0.00 0.00 0.00 32 1005.3
20260509190536 22 175 17.7 24.1 0.00 0.00 0.00 32 1005.1
20260509190034 22 269 9.7 14.5 0.00 0.00 0.00 31 1005.2
20260509185531 22 218 11.3 17.7 0.00 0.00 0.00 31 1005.1
20260509185027 22 131 4.8 25.7 0.00 0.00 0.00 32 1005.1
20260509184525 22 222 12.9 24.1 0.00 0.00 0.00 31 1005.1
20260509184021 22 269 12.9 27.4 0.00 0.00 0.00 32 1005.0
20260509183517 21 266 8.0 22.5 0.00 0.00 0.00 31 1005.0
20260509183013 22 223 9.7 22.5 0.00 0.00 0.00 31 1004.8
20260509182509 22 249 11.3 14.5 0.00 0.00 0.00 32 1004.8
20260509182006 22 288 11.3 25.7 0.00 0.00 0.00 32 1004.9
20260509181505 22 204 12.9 24.1 0.00 0.00 0.00 33 1005.0
20260509181002 22 287 4.8 11.3 0.00 0.00 0.00 33 1004.9
20260509180457 21 200 4.8 14.5 0.00 0.00 0.00 34 1005.2
20260509175954 21 256 4.8 17.7 0.00 0.00 0.00 33 1005.1
20260509175450 21 277 9.7 24.1 0.00 0.00 0.00 32 1005.1
20260509174947 22 231 16.1 22.5 0.00 0.00 0.00 32 1005.3
20260509174444 21 250 6.4 22.5 0.00 0.00 0.00 32 1005.2
20260509173939 21 212 11.3 20.9 0.00 0.00 0.00 31 1005.1
20260509173438 21 271 9.7 20.9 0.00 0.00 0.00 33 1005.3
20260509172935 21 331 8.0 17.7 0.00 0.00 0.00 33 1005.3
20260509172432 21 288 12.9 16.1 0.00 0.00 0.00 34 1005.4
20260509171928 21 298 14.5 24.1 0.00 0.00 0.00 34 1005.4
20260509171424 21 262 8.0 17.7 0.00 0.00 0.00 37 1005.4
20260509170921 22 292 6.4 14.5 0.00 0.00 0.00 37 1005.4
20260509170416 22 274 9.7 25.7 0.00 0.00 0.00 36 1005.5
20260509165912 21 297 6.4 27.4 0.00 0.00 0.00 38 1005.2
20260509165406 21 174 4.8 17.7 0.00 0.00 0.00 40 1005.4
20260509164902 21 203 9.7 22.5 0.00 0.00 0.00 38 1005.4
20260509164358 21 249 9.7 17.7 0.00 0.00 0.00 40 1005.3
20260509163854 21 237 12.9 16.1 0.00 0.00 0.00 47 1005.3
20260509163352 20 273 12.9 16.1 0.00 0.00 0.00 49 1005.4
20260509162851 20 235 8.0 12.9 0.00 0.00 0.00 52 1005.2
20260509162349 20 240 6.4 24.1 0.00 0.00 0.00 54 1005.4
20260509161846 20 255 4.8 9.7 0.00 0.00 0.00 54 1005.3
20260509161342 20 222 14.5 16.1 0.00 0.00 0.00 58 1005.3
20260509160838 19 221 12.9 14.5 0.00 0.00 0.00 59 1005.3
20260509160334 19 218 9.7 16.1 0.00 0.00 0.00 60 1005.3
20260509155829 19 230 8.0 12.9 0.00 0.00 0.00 61 1005.4
20260509155326 18 211 8.0 16.1 0.00 0.00 0.00 63 1005.3
20260509154822 20 198 8.0 11.3 0.00 0.00 0.00 60 1005.3
20260509154319 18 222 6.4 12.9 0.00 0.00 0.00 63 1005.4
20260509153816 18 223 9.7 16.1 0.00 0.00 0.00 66 1005.3
20260509153313 17 173 8.0 20.9 0.00 0.00 0.00 67 1005.3
20260509152809 18 168 11.3 16.1 0.00 0.00 0.00 67 1005.5
20260509152306 17 244 3.2 14.5 0.00 0.00 0.00 69 1005.5
20260509151803 17 178 8.0 14.5 0.00 0.00 0.00 68 1005.2
20260509151258 17 232 14.5 22.5 0.00 0.00 0.00 70 1005.5
20260509150757 17 183 6.4 17.7 0.00 0.00 0.00 69 1005.3
20260509150255 17 231 11.3 14.5 0.00 0.00 0.00 71 1005.3
20260509145752 16 177 4.8 16.1 0.00 0.00 0.00 74 1005.4
20260509145251 16 144 11.3 17.7 0.00 0.00 0.00 73 1005.7
20260509144748 16 225 11.3 16.1 0.00 0.00 0.00 72 1005.5
20260509144245 16 197 16.1 22.5 0.00 0.00 0.00 73 1005.3
20260509143742 16 181 8.0 14.5 0.00 0.00 0.00 75 1005.1
20260509143240 16 194 9.7 16.1 0.00 0.00 0.00 75 1005.3
20260509142736 15 233 14.5 20.9 0.00 0.00 0.00 75 1005.4
20260509142232 15 218 12.9 22.5 0.00 0.00 0.00 76 1005.5
20260509141727 15 150 8.0 16.1 0.00 0.00 0.00 76 1005.3
20260509141225 15 171 14.5 16.1 0.00 0.00 0.00 78 1005.3
20260509140721 15 139 3.2 14.5 0.00 0.00 0.00 78 1005.2
20260509140222 15 294 8.0 16.1 0.00 0.00 0.00 78 1005.3
20260509135716 15 209 6.4 14.5 0.00 0.00 0.00 78 1005.3
20260509135214 15 183 3.2 14.5 0.00 0.00 0.00 79 1005.3
20260509134710 15 235 16.1 20.9 0.00 0.00 0.00 79 1005.4
20260509134208 15 205 9.7 20.9 0.00 0.00 0.00 79 1005.2
20260509133705 15 213 8.0 14.5 0.00 0.00 0.00 80 1005.2
20260509133202 14 149 8.0 17.7 0.00 0.00 0.00 82 1005.0
20260509132700 14 214 12.9 17.7 0.00 0.00 0.00 82 1005.1
20260509132159 13 166 4.8 11.3 0.00 0.00 0.00 83 1005.0
20260509131654 13 244 6.4 11.3 0.00 0.00 0.00 83 1005.1
20260509131151 13 169 6.4 24.1 0.00 0.00 0.00 84 1005.4
20260509130647 13 210 16.1 20.9 0.00 0.00 0.00 83 1005.1
20260509130143 13 240 9.7 16.1 0.00 0.00 0.00 84 1005.3
20260509125640 13 151 3.2 12.9 0.00 0.00 0.00 85 1005.3
20260509125137 13 197 11.3 16.1 0.00 0.00 0.00 85 1005.2
20260509124633 12 209 9.7 11.3 0.00 0.00 0.00 86 1005.2
20260509124130 12 231 6.4 11.3 0.00 0.00 0.00 87 1005.0
20260509123628 12 217 8.0 12.9 0.00 0.00 0.00 87 1005.1
20260509123125 12 186 9.7 12.9 0.00 0.00 0.00 88 1005.4
20260509122621 12 211 8.0 11.3 0.00 0.00 0.00 89 1005.2
20260509122118 12 191 11.3 16.1 0.00 0.00 0.00 90 1005.0
20260509121614 11 199 9.7 12.9 0.00 0.00 0.00 91 1005.2
20260509121113 11 137 6.4 11.3 0.00 0.00 0.00 93 1005.0
20260509120610 11 144 11.3 16.1 0.00 0.00 0.00 93 1005.0
20260509120108 11 166 8.0 11.3 0.00 0.00 0.00 93 1005.0
20260509115605 11 140 4.8 12.9 0.00 0.00 0.00 93 1005.1
20260509115103 11 204 11.3 14.5 0.00 0.00 0.00 94 1005.1
20260509114601 10 196 3.2 11.3 0.00 0.00 0.00 94 1004.9
20260509114100 10 224 6.4 6.4 0.00 0.00 0.00 94 1005.1
20260509113557 10 195 6.4 14.5 0.00 0.00 0.00 94 1004.7
20260509113055 10 180 9.7 11.3 0.00 0.00 0.00 94 1004.8
20260509112551 10 149 3.2 11.3 0.00 0.00 0.00 94 1004.7
20260509112048 10 212 6.4 11.3 0.00 0.00 0.00 94 1004.6
20260509111546 10 185 9.7 12.9 0.00 0.00 0.00 94 1004.6
20260509111043 10 159 9.7 12.9 0.00 0.00 0.00 94 1004.4
20260509110540 10 207 8.0 14.5 0.00 0.00 0.00 94 1004.5
20260509110037 11 155 6.4 12.9 0.00 0.00 0.00 93 1004.6
20260509105534 10 175 6.4 16.1 0.00 0.00 0.00 93 1004.6
20260509105032 10 214 6.4 9.7 0.00 0.00 0.00 94 1004.7
20260509104529 10 179 9.7 12.9 0.00 0.00 0.00 94 1004.8
20260509104026 11 153 4.8 9.7 0.00 0.00 0.00 94 1004.4
20260509103523 11 162 11.3 14.5 0.00 0.00 0.00 93 1004.4
20260509103021 11 215 11.3 14.5 0.00 0.00 0.00 93 1004.5
20260509102518 11 185 8.0 14.5 0.00 0.00 0.00 94 1004.2
20260509102015 11 192 4.8 11.3 0.00 0.00 0.00 94 1004.3
20260509101511 10 206 6.4 11.3 0.00 0.00 0.00 94 1004.4
20260509101008 10 192 8.0 12.9 0.00 0.00 0.00 94 1004.3
20260509100505 10 176 4.8 11.3 0.00 0.00 0.00 95 1004.4
20260509100002 10 132 8.0 12.9 0.00 0.00 0.00 95 1004.4
20260509095459 10 177 11.3 14.5 0.00 0.00 0.00 96 1004.6
20260509094956 10 161 6.4 11.3 0.00 0.00 0.00 96 1004.6
20260509094452 10 141 6.4 9.7 0.00 0.00 0.00 96 1004.7
20260509093950 10 207 6.4 6.4 0.00 0.00 0.00 96 1004.9
20260509093448 10 171 3.2 6.4 0.00 0.00 0.00 96 1004.9
20260509092945 10 173 6.4 9.7 0.00 0.00 0.00 96 1004.7
20260509092443 10 171 3.2 9.7 0.00 0.00 0.00 96 1005.0
20260509091942 10 141 3.2 11.3 0.00 0.00 0.00 96 1005.2
20260509091438 10 149 3.2 11.3 0.00 0.00 0.00 95 1005.1
20260509090935 10 131 3.2 6.4 0.00 0.00 0.00 95 1005.2
20260509090432 10 185 6.4 12.9 0.00 0.00 0.00 95 1005.2
20260509085931 10 217 9.7 14.5 0.00 0.00 0.00 95 1005.0
20260509085427 10 145 3.2 3.2 0.00 0.00 0.00 95 1005.0
20260509084923 10 137 4.8 12.9 0.00 0.00 0.00 95 1005.1
20260509084420 10 186 6.4 9.7 0.00 0.00 0.00 95 1005.2
20260509083918 10 146 4.8 11.3 0.00 0.00 0.00 94 1005.3
20260509083415 10 154 6.4 11.3 0.00 0.00 0.00 94 1005.3
20260509082911 10 142 4.8 4.8 0.00 0.00 0.00 94 1005.2
20260509082409 11 195 8.0 11.3 0.00 0.00 0.00 94 1005.4
20260509081905 11 142 4.8 9.7 0.00 0.00 0.00 93 1005.3
20260509081402 11 173 6.4 11.3 0.00 0.00 0.00 93 1005.3
20260509080900 11 179 6.4 9.7 0.00 0.00 0.00 93 1005.3
20260509080358 11 127 3.2 9.7 0.00 0.00 0.00 92 1005.1
20260509075856 11 159 6.4 9.7 0.00 0.00 0.00 92 1005.1
20260509075352 11 155 6.4 11.3 0.00 0.00 0.00 92 1005.3
20260509074850 11 125 4.8 9.7 0.00 0.00 0.00 92 1005.4
20260509074348 11 129 3.2 11.3 0.00 0.00 0.00 92 1005.3
20260509073843 11 164 4.8 11.3 0.00 0.00 0.00 91 1005.4
20260509073340 11 188 8.0 9.7 0.00 0.00 0.00 91 1005.4
20260509072837 11 226 8.0 11.3 0.00 0.00 0.00 91 1005.8
20260509072333 11 160 4.8 6.4 0.00 0.00 0.00 91 1005.5
20260509071830 11 205 4.8 12.9 0.00 0.00 0.00 91 1005.5
20260509071327 11 184 3.2 14.5 0.00 0.00 0.00 90 1005.6
20260509070824 11 174 4.8 12.9 0.00 0.00 0.00 90 1005.6
20260509070321 11 181 8.0 11.3 0.00 0.00 0.00 90 1005.8
20260509065817 11 150 4.8 14.5 0.00 0.00 0.00 90 1005.8
20260509065313 11 201 3.2 6.4 0.00 0.00 0.00 90 1006.1
20260509064809 11 179 4.8 9.7 0.00 0.00 0.00 89 1006.0
20260509064307 11 144 3.2 6.4 0.00 0.00 0.00 89 1006.0
20260509063804 11 193 8.0 12.9 0.00 0.00 0.00 89 1006.1
20260509063300 11 183 4.8 9.7 0.00 0.00 0.00 89 1006.0
20260509062758 11 191 6.4 9.7 0.00 0.00 0.00 90 1006.3
20260509062255 11 135 4.8 9.7 0.00 0.00 0.00 89 1006.2
20260509061752 11 148 3.2 9.7 0.00 0.00 0.00 89 1006.0
20260509061250 11 152 3.2 11.3 0.00 0.00 0.00 90 1006.4
20260509060747 11 137 4.8 9.7 0.00 0.00 0.00 90 1006.4
20260509060243 11 156 3.2 4.8 0.00 0.00 0.00 90 1006.5
20260509055739 11 152 6.4 11.3 0.00 0.00 0.00 90 1006.5
20260509055235 12 160 6.4 9.7 0.00 0.00 0.00 89 1006.6
20260509054732 12 151 6.4 6.4 0.00 0.00 0.00 89 1006.6
20260509054229 12 158 4.8 9.7 0.00 0.00 0.00 89 1006.5
20260509053727 12 181 6.4 11.3 0.00 0.00 0.00 89 1006.4
20260509053224 12 145 3.2 9.7 0.00 0.00 0.00 89 1006.6
20260509052722 12 142 3.2 6.4 0.00 0.00 0.00 88 1006.6
20260509052219 12 160 4.8 6.4 0.00 0.00 0.00 88 1006.4
20260509051717 12 164 6.4 9.7 0.00 0.00 0.00 87 1006.6
20260509051214 12 189 6.4 9.7 0.00 0.00 0.00 87 1006.5
20260509050711 12 194 4.8 9.7 0.00 0.00 0.00 86 1006.5
20260509050207 12 156 4.8 9.7 0.00 0.00 0.00 86 1006.4
20260509045705 12 190 9.7 16.1 0.00 0.00 0.00 85 1006.6
20260509045201 12 176 6.4 11.3 0.00 0.00 0.00 85 1006.6
20260509044659 12 164 6.4 11.3 0.00 0.00 0.00 84 1006.7
20260509044156 13 166 6.4 11.3 0.00 0.00 0.00 83 1006.6
20260509043652 13 180 9.7 11.3 0.00 0.00 0.00 83 1006.4
20260509043148 13 151 8.0 14.5 0.00 0.00 0.00 82 1006.5
20260509042645 13 138 6.4 9.7 0.00 0.00 0.00 81 1006.6
20260509042141 13 196 8.0 9.7 0.00 0.00 0.00 80 1006.4
20260509041638 13 192 4.8 11.3 0.00 0.00 0.00 79 1006.6
20260509041135 13 194 6.4 11.3 0.00 0.00 0.00 78 1006.5
20260509040634 13 196 11.3 17.7 0.00 0.00 0.00 77 1006.6
20260509040130 13 162 3.2 9.7 0.00 0.00 0.00 76 1006.6
20260509035627 13 145 9.7 12.9 0.00 0.00 0.00 75 1006.7
20260509035123 13 163 4.8 14.5 0.00 0.00 0.00 75 1006.8
20260509034622 14 195 9.7 14.5 0.00 0.00 0.00 74 1006.9
20260509034118 14 193 8.0 11.3 0.00 0.00 0.00 74 1006.8
20260509033615 14 137 6.4 11.3 0.00 0.00 0.00 74 1006.9
20260509033112 14 193 6.4 9.7 0.00 0.00 0.00 74 1006.7
20260509032609 14 155 6.4 12.9 0.00 0.00 0.00 73 1006.7
20260509032106 14 161 8.0 16.1 0.00 0.00 0.00 72 1006.8
20260509031604 14 193 3.2 9.7 0.00 0.00 0.00 72 1006.7
20260509031101 14 208 6.4 11.3 0.00 0.00 0.00 71 1006.8
20260509030559 15 198 8.0 14.5 0.00 0.00 0.00 70 1006.6
20260509030056 15 177 6.4 12.9 0.00 0.00 0.00 68 1006.8
20260509025552 15 159 9.7 12.9 0.00 0.00 0.00 67 1006.6
20260509025048 15 173 11.3 12.9 0.00 0.00 0.00 66 1006.8
20260509024544 15 169 9.7 12.9 0.00 0.00 0.00 64 1006.6
20260509024040 15 116 3.2 11.3 0.00 0.00 0.00 64 1006.8
20260509023538 15 155 6.4 6.4 0.00 0.00 0.00 64 1006.8
20260509023034 15 138 1.6 4.8 0.00 0.00 0.00 64 1006.7
20260509022531 15 157 6.4 6.4 0.00 0.00 0.00 63 1006.7
20260509022029 15 139 3.2 4.8 0.00 0.00 0.00 63 1006.9
20260509021526 15 146 3.2 6.4 0.00 0.00 0.00 63 1006.7
20260509021023 15 142 3.2 4.8 0.00 0.00 0.00 64 1006.9
20260509020521 15 134 1.6 3.2 0.00 0.00 0.00 64 1006.8
20260509020017 15 130 1.6 3.2 0.00 0.00 0.00 63 1006.8
20260509015516 15 132 1.6 4.8 0.00 0.00 0.00 63 1006.8
20260509015013 15 137 3.2 3.2 0.00 0.00 0.00 61 1006.6
20260509014510 16 142 3.2 4.8 0.00 0.00 0.00 60 1006.7
20260509014006 16 138 3.2 6.4 0.00 0.00 0.00 59 1006.7
20260509013503 16 149 3.2 4.8 0.00 0.00 0.00 58 1006.8
20260509012959 16 164 3.2 4.8 0.00 0.00 0.00 57 1006.6
20260509012455 16 172 1.6 6.4 0.00 0.00 0.00 57 1006.6
20260509011952 16 165 3.2 6.4 0.00 0.00 0.00 56 1006.6
20260509011450 16 130 3.2 4.8 0.00 0.00 0.00 56 1006.6
20260509010947 16 131 4.8 11.3 0.00 0.00 0.00 56 1006.6
20260509010445 17 174 4.8 4.8 0.00 0.00 0.00 55 1006.5
20260509005942 17 158 9.7 11.3 0.00 0.00 0.00 54 1006.6
20260509005440 17 178 8.0 9.7 0.00 0.00 0.00 54 1006.5
20260509004940 17 141 6.4 9.7 0.00 0.00 0.00 54 1006.6
20260509004437 17 180 4.8 6.4 0.00 0.00 0.00 53 1006.4
20260509003935 17 172 4.8 11.3 0.00 0.00 0.00 52 1006.5
20260509003432 17 160 4.8 9.7 0.00 0.00 0.00 51 1006.7
20260509002929 17 155 6.4 6.4 0.00 0.00 0.00 51 1006.4
20260509002427 18 138 3.2 4.8 0.00 0.00 0.00 51 1006.8
20260509001924 18 155 3.2 6.4 0.00 0.00 0.00 51 1006.7
20260509001420 18 140 1.6 6.4 0.00 0.00 0.00 50 1006.6
20260509000917 18 149 6.4 9.7 0.00 0.00 0.00 50 1006.7
20260509000417 18 146 6.4 9.7 0.00 0.00 0.00 51 1006.6
20260508235910 18 144 6.4 9.7 0.00 0.00 0.00 51 1006.7
20260508235409 18 193 3.2 6.4 0.00 0.00 0.00 50 1006.7
20260508234905 18 128 4.8 4.8 0.00 0.00 0.00 51 1006.8
20260508234401 18 178 6.4 12.9 0.00 0.00 0.00 50 1006.7
20260508233900 18 214 6.4 6.4 0.00 0.00 0.00 49 1006.7
20260508233359 18 150 4.8 9.7 0.00 0.00 0.00 49 1006.9
20260508232855 18 130 1.6 3.2 0.00 0.00 0.00 50 1006.8
20260508232352 18 169 3.2 4.8 0.00 0.00 0.00 49 1006.9
20260508231850 18 193 4.8 4.8 0.00 0.00 0.00 48 1006.8
20260508231346 18 189 4.8 9.7 0.00 0.00 0.00 49 1006.7
20260508230843 18 165 6.4 9.7 0.00 0.00 0.00 48 1006.8
20260508230339 18 113 6.4 12.9 0.00 0.00 0.00 48 1006.9
20260508225838 18 144 3.2 4.8 0.00 0.00 0.00 48 1006.9
20260508225333 19 178 8.0 12.9 0.00 0.00 0.00 46 1006.8
20260508224832 19 206 3.2 6.4 0.00 0.00 0.00 45 1006.9